{"data":{"norad_id":62472,"intl_designator":"2024-254L","name":"STARLINK-11500 [DTC]","alt_names":[],"object_type":"PAYLOAD","status":"ACTIVE","operator":null,"country":"US","launch_date":"2024-12-31","launch_site_code":"AFETR","launch_vehicle":null,"mission":null,"orbit_class":"UNKNOWN","rcs_meters":null,"size_class":null,"mass_kg":null,"dimensions":null,"purposes":["comms"],"wikipedia_slug":null,"has_3d_model":false,"image_url":null,"decayed_at":null,"tle_current":{"epoch":"2026-05-24T09:54:03.722976Z","epoch_age_seconds":119745,"freshness":"FRESH","line1":"1 62472U 24254L   26144.41254309  .00192944  00000+0  14697-2 0  9990","line2":"2 62472  43.0007 126.2634 0002344 249.5459 110.5157 15.70885437 80783","mean_motion":15.70885437,"eccentricity":0.0002344,"inclination_deg":43.0007,"raan_deg":126.2634,"arg_perigee_deg":249.5459,"mean_anomaly_deg":110.5157,"bstar":0.0014697,"rev_number":8078,"period_min":91.668046955101,"perigee_km":354.78662993415,"apogee_km":357.94376456422,"semimajor_km":6734.5021972492,"source":"CELESTRAK","updated_at":"2026-05-25T13:38:19.693388Z"}}}